Location: ????????
(60.4333°N, 46.4710°E)
Time: 19:53:06
(UTC+00:00)

Cosmos 2150 Rocket - Pass Details

Date: 25 November 2020
Orbit: 749 x 807 km, 74.0° (Epoch: 16 January)

Event Time Altitude Azimuth Distance (km) Brightness Sun altitude
Rises 12:52:13 0° 326° (NW) 3,236 7.3 -5.7°
Reaches altitude 10° 12:54:37 10° 328° (NNW) 2,301 6.5 -5.9°
Maximum altitude 12:59:50 78° 55° (NE) 776 4.0 -6.5°
Drops below altitude 10° 13:04:59 10° 142° (SE) 2,272 6.4 -7.0°
Sets 13:07:20 0° 144° (SE) 3,193 7.2 -7.3°
